Volver al catálogo

DMSP 5D-2 F13 DEB

ActivoPO
NORAD 40605·DEBRIS·🇺🇸 United States

Lanzado Mar 24, 1995 desde Vandenberg Space Force Base

Loading…

Próximos Pases (próximas 24 horas)

TLE

ActualizadoSource: Space-Track

Época: Sep 14, 2026, 10:16 UTC

1 40605U 95015FC  26257.42794736  .00007234  00000-0  13999-2 0  9998
2 40605  98.6202 329.7733 0015733 312.1862  47.8002 14.63577615595601

Sigue DMSP 5D-2 F13 DEB en tiempo real con AllMySat

Download on the App Store